Olympic National Park, WA

3:00 PM PDT on July 25, 2016 (GMT -0700)
Lake Dawn | | Change Station

Elev 1864 ft 48.04 °N, 123.43 °W | Updated 22 seconds ago

Clear
Clear
76.6 °F
Feels Like 78 °F
N
2.2
Wind Variable Wind from West
Gusts 6.9 mph

Today
High -- | Low -- °F
--% Chance of Precip.
Yesterday
High -- | Low -- °F
Precip. -- in
Pressure 30.09 in
Visibility 10.0 miles
Clouds Clear
Heat Index 78 °F
Dew Point 47 °F
Humidity 35%
Rainfall 0.00 in
Snow Depth Not available.
5:42 AM 8:58 PM
Waning Gibbous, 62% visible
METAR KCLM 252153Z AUTO 30010KT 10SM CLR 21/14 A3009 RMK AO2 SLP189 T02110139
Pressure 30.09 in
Visibility 10.0 miles
Clouds Clear
Heat Index 78 °F
Dew Point 47 °F
Humidity 35%
Rainfall 0.00 in
Snow Depth Not available.
5:42 AM 8:58 PM
Waning Gibbous, 62% visible
METAR KCLM 252153Z AUTO 30010KT 10SM CLR 21/14 A3009 RMK AO2 SLP189 T02110139

10-Day Weather Forecast

Almanac

Astronomy

Jul. 25, 2016 Rise Set
Actual Time
Civil Twilight
Nautical Twilight
Astronomical Twilight
Moon
Length of Visible Light
Length of Day
Tomorrow will be .
, % of the Moon is Illuminated

Today's Extremes

State Highs State Lows

Community

WunderPhotos

Upload Photos

1,927,424 photos uploaded!

WunderBlog® & News

Nearby

Air Quality

  Air Quality AQ Index Pollutant
Not available.

Snow Depth

Station Depth Elevation

Earthquake Activity

City Distance Mag. Time & Date
Minimum magnitude displayed is 2.5.

Coastal Water Temperatures

Place Temperature

Stations

Nearby Weather Stations

Station Location Temp. Windchill Dew Point Humidity Wind Precip. Elev Updated Type
                   

Watches & Warnings

There are currently no watches in effect.